Weather History for Everett, WA

Change the Weather History Date:

Sunday, March 30, 2014

  Actual Average Record
Temperature  
Mean Temperature 46 °F -  
Max Temperature 51 °F 54 °F 72 °F (1966)
Min Temperature 42 °F 37 °F 29 °F (1954)
Degree Days  
Heating Degree Days 19    
Moisture  
Dew Point 38 °F    
Average Humidity 76    
Maximum Humidity 90    
Minimum Humidity 57    
Precipitation  
Precipitation 0.01 in - - ()
Sea Level Pressure  
Sea Level Pressure 29.92 in    
Wind  
Wind Speed 14 mph (South)    
Max Wind Speed 21 mph    
Max Gust Speed 24 mph    
Visibility 10 miles    
Events Rain    
Averages and records for this station are not official NWS values.
T = Trace of Precipitation, MM = Missing Value Source: NWS Daily Summary

Daily Weather History Graph

Daily Weather History Graph

Search for Another Location

Airport:

Trip Planner

Search our weather history database for the weather conditions in past years. The results will help you decide how hot, cold, wet, or windy it might be!

Date:

Astronomy

Mar. 30, 2014 Rise Set
Actual Time 6:51 AM PDT 7:36 PM PDT
Civil Twilight 6:20 AM PDT 8:07 PM PDT
Nautical Twilight 5:42 AM PDT 8:45 PM PDT
Astronomical Twilight 5:03 AM PDT 9:24 PM PDT
Moon 6:40 AM PDT (3/30) 7:58 PM PDT (3/30)
Length of Visible Light 13h 47m
Length of Day
12h 45m
New Moon, 0% of the Moon is Illuminated
Mar 30
New Moon
Apr 7
First Quarter
Apr 15
Full
Apr 22
Last Quarter
Apr 28
New

Hourly Weather History & Observations

Time (PDT) Temp. Windchill Dew Point Humidity Pressure Visibility Wind Dir Wind Speed Gust Speed Precip Events Conditions
12:53 AM 45.0 °F 38.2 °F 42.1 °F 90% 29.82 in 10.0 mi SSW 15.0 mph - N/A   Overcast
1:53 AM 45.0 °F 38.9 °F 41.0 °F 86% 29.83 in 10.0 mi South 12.7 mph 24.2 mph N/A   Overcast
2:21 AM 45.0 °F 38.2 °F 41.0 °F 86% 29.82 in 10.0 mi SSW 15.0 mph - N/A   Overcast
2:53 AM 45.0 °F 38.5 °F 41.0 °F 86% 29.83 in 10.0 mi South 13.8 mph - N/A   Overcast
3:27 AM 44.1 °F 37.1 °F 41.0 °F 89% 29.83 in 10.0 mi South 15.0 mph - N/A   Overcast
3:53 AM 44.1 °F 37.1 °F 39.9 °F 85% 29.84 in 10.0 mi SSW 15.0 mph - N/A   Overcast
4:45 AM 43.0 °F 35.7 °F 39.9 °F 89% 29.84 in 10.0 mi SSW 15.0 mph - N/A   Overcast
4:53 AM 43.0 °F 36.0 °F 39.9 °F 89% 29.85 in 10.0 mi South 13.8 mph - N/A   Overcast
5:22 AM 42.1 °F 34.9 °F 39.0 °F 89% 29.85 in 10.0 mi South 13.8 mph - N/A   Scattered Clouds
5:53 AM 42.1 °F 34.2 °F 39.0 °F 89% 29.87 in 10.0 mi South 16.1 mph - N/A   Partly Cloudy
6:53 AM 42.1 °F 33.6 °F 37.9 °F 85% 29.88 in 10.0 mi South 18.4 mph - N/A   Mostly Cloudy
7:14 AM 42.1 °F 34.5 °F 37.9 °F 85% 29.88 in 10.0 mi South 15.0 mph - N/A   Mostly Cloudy
7:53 AM 43.0 °F 35.4 °F 37.9 °F 82% 29.89 in 10.0 mi South 16.1 mph 21.9 mph N/A   Overcast
8:53 AM 43.0 °F 36.8 °F 37.9 °F 82% 29.92 in 10.0 mi South 11.5 mph 21.9 mph N/A   Overcast
9:53 AM 44.1 °F 36.2 °F 37.9 °F 79% 29.93 in 10.0 mi South 18.4 mph 23.0 mph N/A   Overcast
10:53 AM 45.0 °F 37.4 °F 37.9 °F 76% 29.95 in 10.0 mi South 18.4 mph - N/A   Mostly Cloudy
11:53 AM 46.9 °F - 37.9 °F 71% 29.96 in 10.0 mi SSW 20.7 mph 24.2 mph N/A   Overcast
12:53 PM 48.9 °F - 39.0 °F 69% 29.96 in 10.0 mi South 15.0 mph - N/A   Mostly Cloudy
1:53 PM 50.0 °F - 37.0 °F 61% 29.96 in 10.0 mi SSW 12.7 mph - 0.00 in   Overcast
2:00 PM 50.0 °F - 37.0 °F 61% 29.95 in 10.0 mi South 12.7 mph - N/A   Mostly Cloudy
2:53 PM 50.0 °F - 35.1 °F 57% 29.95 in 10.0 mi South 9.2 mph - N/A   Mostly Cloudy
3:53 PM 48.9 °F - 37.9 °F 66% 29.96 in 9.0 mi West 5.8 mph - 0.01 in Rain Light Rain
3:58 PM 48.9 °F - 37.9 °F 66% 29.95 in 9.0 mi West 9.2 mph - 0.00 in Rain Light Rain
4:53 PM 50.0 °F - 37.9 °F 63% 29.96 in 9.0 mi Variable 3.5 mph - 0.00 in   Mostly Cloudy
5:53 PM 48.9 °F - 37.0 °F 64% 29.96 in 10.0 mi SSW 11.5 mph - N/A   Mostly Cloudy
6:53 PM 48.0 °F - 37.0 °F 66% 29.98 in 10.0 mi South 8.1 mph - N/A   Mostly Cloudy
7:53 PM 46.9 °F - 36.0 °F 66% 29.99 in 10.0 mi South 9.2 mph - N/A   Mostly Cloudy
8:53 PM 46.0 °F 41.9 °F 37.0 °F 71% 30.00 in 10.0 mi SSE 8.1 mph - N/A   Partly Cloudy
9:53 PM 45.0 °F 40.6 °F 37.0 °F 74% 30.00 in 10.0 mi South 8.1 mph - N/A   Overcast
10:53 PM 44.1 °F 39.0 °F 36.0 °F 73% 30.00 in 10.0 mi SSE 9.2 mph - N/A   Clear
11:53 PM 43.0 °F 39.5 °F 36.0 °F 76% 30.00 in 10.0 mi ESE 5.8 mph - N/A   Clear